owner,sensor,date,latitude,longitude,vertical_datum,sea_water_practical_salinity,qcFlag 
TCOON,ioos:station:TCOON:170:1,2017-01-01T00:30:00Z,27.2970,-97.4049,0.0,38.0,1111122 
TCOON,ioos:station:TCOON:170:1,2017-01-01T02:30:00Z,27.2970,-97.4049,0.0,38.2,1111122 
TCOON,ioos:station:TCOON:170:1,2017-01-01T03:30:00Z,27.2970,-97.4049,0.0,38.1,1111122 
TCOON,ioos:station:TCOON:170:1,2017-01-01T05:30:00Z,27.2970,-97.4049,0.0,38.2,1111122 
TCOON,ioos:station:TCOON:170:1,2017-01-01T06:30:00Z,27.2970,-97.4049,0.0,38.3,1111122 
TCOON,ioos:station:TCOON:170:1,2017-01-01T07:30:00Z,27.2970,-97.4049,0.0,38.4,1111122 
TCOON,ioos:station:TCOON:170:1,2017-01-01T08:30:00Z,27.2970,-97.4049,0.0,38.2,1111122 
TCOON,ioos:station:TCOON:170:1,2017-01-01T09:30:00Z,27.2970,-97.4049,0.0,38.0,1111122 
TCOON,ioos:station:TCOON:170:1,2017-01-01T10:30:00Z,27.2970,-97.4049,0.0,38.1,1111122 
TCOON,ioos:station:TCOON:170:1,2017-01-01T11:30:00Z,27.2970,-97.4049,0.0,38.4,1111122 
TCOON,ioos:station:TCOON:170:1,2017-01-01T14:30:00Z,27.2970,-97.4049,0.0,38.2,1111122 
TCOON,ioos:station:TCOON:170:1,2017-01-01T15:30:00Z,27.2970,-97.4049,0.0,38.8,1111122 
TCOON,ioos:station:TCOON:170:1,2017-01-01T16:30:00Z,27.2970,-97.4049,0.0,38.3,1111122 
TCOON,ioos:station:TCOON:170:1,2017-01-01T17:30:00Z,27.2970,-97.4049,0.0,37.8,1111122 
TCOON,ioos:station:TCOON:170:1,2017-01-01T18:30:00Z,27.2970,-97.4049,0.0,37.8,1111122 
TCOON,ioos:station:TCOON:170:1,2017-01-01T20:30:00Z,27.2970,-97.4049,0.0,38.0,1111122 
TCOON,ioos:station:TCOON:170:1,2017-01-01T21:30:00Z,27.2970,-97.4049,0.0,38.0,1111122 
TCOON,ioos:station:TCOON:170:1,2017-01-01T22:30:00Z,27.2970,-97.4049,0.0,38.2,1111122 
TCOON,ioos:station:TCOON:170:1,2017-01-02T00:30:00Z,27.2970,-97.4049,0.0,38.2,1111122 
TCOON,ioos:station:TCOON:170:1,2017-01-02T01:30:00Z,27.2970,-97.4049,0.0,38.8,1111122 
TCOON,ioos:station:TCOON:170:1,2017-01-02T02:30:00Z,27.2970,-97.4049,0.0,39.5,1111122 
TCOON,ioos:station:TCOON:170:1,2017-01-02T03:30:00Z,27.2970,-97.4049,0.0,39.2,1111122 
TCOON,ioos:station:TCOON:170:1,2017-01-02T04:30:00Z,27.2970,-97.4049,0.0,39.5,1111122 
TCOON,ioos:station:TCOON:170:1,2017-01-02T06:30:00Z,27.2970,-97.4049,0.0,39.9,1111122 
TCOON,ioos:station:TCOON:170:1,2017-01-02T07:30:00Z,27.2970,-97.4049,0.0,40.0,1111122 
TCOON,ioos:station:TCOON:170:1,2017-01-02T09:30:00Z,27.2970,-97.4049,0.0,40.3,1111122 
TCOON,ioos:station:TCOON:170:1,2017-01-02T11:30:00Z,27.2970,-97.4049,0.0,40.4,1111122 
TCOON,ioos:station:TCOON:170:1,2017-01-02T12:30:00Z,27.2970,-97.4049,0.0,40.4,1111122 
TCOON,ioos:station:TCOON:170:1,2017-01-02T13:30:00Z,27.2970,-97.4049,0.0,40.4,1111122 
TCOON,ioos:station:TCOON:170:1,2017-01-02T14:30:00Z,27.2970,-97.4049,0.0,40.4,1111122 
TCOON,ioos:station:TCOON:170:1,2017-01-02T15:30:00Z,27.2970,-97.4049,0.0,40.4,1111122 
TCOON,ioos:station:TCOON:170:1,2017-01-02T16:30:00Z,27.2970,-97.4049,0.0,40.4,1111122 
TCOON,ioos:station:TCOON:170:1,2017-01-03T05:30:00Z,27.2970,-97.4049,0.0,39.8,1111122 
TCOON,ioos:station:TCOON:170:1,2017-01-03T18:30:00Z,27.2970,-97.4049,0.0,39.8,1111122 
TCOON,ioos:station:TCOON:170:1,2017-01-03T22:30:00Z,27.2970,-97.4049,0.0,40.0,1111122 
TCOON,ioos:station:TCOON:170:1,2017-01-03T23:30:00Z,27.2970,-97.4049,0.0,40.2,1111122 
TCOON,ioos:station:TCOON:170:1,2017-01-04T00:30:00Z,27.2970,-97.4049,0.0,40.4,1111122 
TCOON,ioos:station:TCOON:170:1,2017-01-04T07:30:00Z,27.2970,-97.4049,0.0,40.5,1111122 
TCOON,ioos:station:TCOON:170:1,2017-01-04T08:30:00Z,27.2970,-97.4049,0.0,40.3,1111122 
TCOON,ioos:station:TCOON:170:1,2017-01-04T09:30:00Z,27.2970,-97.4049,0.0,40.2,1111122 
TCOON,ioos:station:TCOON:170:1,2017-01-04T10:30:00Z,27.2970,-97.4049,0.0,40.2,1111122 
TCOON,ioos:station:TCOON:170:1,2017-01-04T11:30:00Z,27.2970,-97.4049,0.0,40.1,1111122 
TCOON,ioos:station:TCOON:170:1,2017-01-04T12:30:00Z,27.2970,-97.4049,0.0,40.3,1111122 
TCOON,ioos:station:TCOON:170:1,2017-01-04T13:30:00Z,27.2970,-97.4049,0.0,40.2,1111122 
TCOON,ioos:station:TCOON:170:1,2017-01-04T14:30:00Z,27.2970,-97.4049,0.0,40.2,1111122 
TCOON,ioos:station:TCOON:170:1,2017-01-04T15:30:00Z,27.2970,-97.4049,0.0,40.0,1111122 
TCOON,ioos:station:TCOON:170:1,2017-01-04T16:30:00Z,27.2970,-97.4049,0.0,40.1,1111122 
TCOON,ioos:station:TCOON:170:1,2017-01-04T17:30:00Z,27.2970,-97.4049,0.0,39.8,1111122 
TCOON,ioos:station:TCOON:170:1,2017-01-04T18:30:00Z,27.2970,-97.4049,0.0,39.6,1111122 
TCOON,ioos:station:TCOON:170:1,2017-01-04T19:30:00Z,27.2970,-97.4049,0.0,39.5,1111122 
TCOON,ioos:station:TCOON:170:1,2017-01-04T20:30:00Z,27.2970,-97.4049,0.0,39.3,1111122 
TCOON,ioos:station:TCOON:170:1,2017-01-04T21:30:00Z,27.2970,-97.4049,0.0,39.4,1111122 
TCOON,ioos:station:TCOON:170:1,2017-01-04T22:30:00Z,27.2970,-97.4049,0.0,39.1,1111122 
TCOON,ioos:station:TCOON:170:1,2017-01-04T23:30:00Z,27.2970,-97.4049,0.0,39.0,1111122 
TCOON,ioos:station:TCOON:170:1,2017-01-05T00:30:00Z,27.2970,-97.4049,0.0,39.4,1111122 
TCOON,ioos:station:TCOON:170:1,2017-01-05T01:30:00Z,27.2970,-97.4049,0.0,39.3,1111122 
TCOON,ioos:station:TCOON:170:1,2017-01-05T02:30:00Z,27.2970,-97.4049,0.0,39.0,1111122 
TCOON,ioos:station:TCOON:170:1,2017-01-05T03:30:00Z,27.2970,-97.4049,0.0,38.9,1111122 
TCOON,ioos:station:TCOON:170:1,2017-01-05T04:30:00Z,27.2970,-97.4049,0.0,39.1,1111122 
TCOON,ioos:station:TCOON:170:1,2017-01-05T05:30:00Z,27.2970,-97.4049,0.0,39.0,1111122 
TCOON,ioos:station:TCOON:170:1,2017-01-05T07:30:00Z,27.2970,-97.4049,0.0,39.2,1111122 
TCOON,ioos:station:TCOON:170:1,2017-01-05T08:30:00Z,27.2970,-97.4049,0.0,38.7,1111122 
TCOON,ioos:station:TCOON:170:1,2017-01-05T11:30:00Z,27.2970,-97.4049,0.0,38.2,1111122 
TCOON,ioos:station:TCOON:170:1,2017-01-05T12:30:00Z,27.2970,-97.4049,0.0,38.3,1111122 
TCOON,ioos:station:TCOON:170:1,2017-01-05T13:30:00Z,27.2970,-97.4049,0.0,38.3,1111122 
TCOON,ioos:station:TCOON:170:1,2017-01-05T14:30:00Z,27.2970,-97.4049,0.0,38.1,1111122 
TCOON,ioos:station:TCOON:170:1,2017-01-05T15:30:00Z,27.2970,-97.4049,0.0,38.1,1111122 
TCOON,ioos:station:TCOON:170:1,2017-01-05T16:30:00Z,27.2970,-97.4049,0.0,38.1,1111122 
TCOON,ioos:station:TCOON:170:1,2017-01-05T17:30:00Z,27.2970,-97.4049,0.0,38.1,1111122 
TCOON,ioos:station:TCOON:170:1,2017-01-05T19:30:00Z,27.2970,-97.4049,0.0,38.8,1111122 
TCOON,ioos:station:TCOON:170:1,2017-01-05T21:30:00Z,27.2970,-97.4049,0.0,38.6,1111122 
TCOON,ioos:station:TCOON:170:1,2017-01-05T22:30:00Z,27.2970,-97.4049,0.0,38.3,1111122 
TCOON,ioos:station:TCOON:170:1,2017-01-05T23:30:00Z,27.2970,-97.4049,0.0,38.3,1111122 
TCOON,ioos:station:TCOON:170:1,2017-01-06T00:30:00Z,27.2970,-97.4049,0.0,38.4,1111122 
TCOON,ioos:station:TCOON:170:1,2017-01-06T01:30:00Z,27.2970,-97.4049,0.0,38.4,1111122 
TCOON,ioos:station:TCOON:170:1,2017-01-06T02:30:00Z,27.2970,-97.4049,0.0,38.4,1111122 
TCOON,ioos:station:TCOON:170:1,2017-01-06T03:30:00Z,27.2970,-97.4049,0.0,38.6,1111122 
TCOON,ioos:station:TCOON:170:1,2017-01-06T04:30:00Z,27.2970,-97.4049,0.0,38.1,1111122 
TCOON,ioos:station:TCOON:170:1,2017-01-06T05:30:00Z,27.2970,-97.4049,0.0,37.1,1111122 
TCOON,ioos:station:TCOON:170:1,2017-01-06T06:30:00Z,27.2970,-97.4049,0.0,36.5,1111122 
TCOON,ioos:station:TCOON:170:1,2017-01-06T07:30:00Z,27.2970,-97.4049,0.0,35.9,1111122 
TCOON,ioos:station:TCOON:170:1,2017-01-06T08:30:00Z,27.2970,-97.4049,0.0,35.5,1111122 
TCOON,ioos:station:TCOON:170:1,2017-01-06T09:30:00Z,27.2970,-97.4049,0.0,35.2,1111122 
TCOON,ioos:station:TCOON:170:1,2017-01-06T10:30:00Z,27.2970,-97.4049,0.0,34.8,1111122 
TCOON,ioos:station:TCOON:170:1,2017-01-06T11:30:00Z,27.2970,-97.4049,0.0,34.6,1111122 
TCOON,ioos:station:TCOON:170:1,2017-01-06T12:30:00Z,27.2970,-97.4049,0.0,34.1,1111122 
TCOON,ioos:station:TCOON:170:1,2017-01-06T13:30:00Z,27.2970,-97.4049,0.0,34.0,1111122 
TCOON,ioos:station:TCOON:170:1,2017-01-06T14:30:00Z,27.2970,-97.4049,0.0,33.9,1111122 
TCOON,ioos:station:TCOON:170:1,2017-01-06T15:30:00Z,27.2970,-97.4049,0.0,33.7,1111122 
TCOON,ioos:station:TCOON:170:1,2017-01-06T16:30:00Z,27.2970,-97.4049,0.0,33.6,1111122 
TCOON,ioos:station:TCOON:170:1,2017-01-06T17:30:00Z,27.2970,-97.4049,0.0,33.5,1111122 
TCOON,ioos:station:TCOON:170:1,2017-01-06T18:30:00Z,27.2970,-97.4049,0.0,33.3,1111122 
TCOON,ioos:station:TCOON:170:1,2017-01-06T19:30:00Z,27.2970,-97.4049,0.0,33.2,1111122 
TCOON,ioos:station:TCOON:170:1,2017-01-06T20:30:00Z,27.2970,-97.4049,0.0,33.1,1111122 
TCOON,ioos:station:TCOON:170:1,2017-01-06T21:30:00Z,27.2970,-97.4049,0.0,33.0,1111122 
TCOON,ioos:station:TCOON:170:1,2017-01-06T22:30:00Z,27.2970,-97.4049,0.0,33.0,1111122 
TCOON,ioos:station:TCOON:170:1,2017-01-07T01:30:00Z,27.2970,-97.4049,0.0,32.6,1111122 
TCOON,ioos:station:TCOON:170:1,2017-01-07T02:30:00Z,27.2970,-97.4049,0.0,32.6,1111122 
TCOON,ioos:station:TCOON:170:1,2017-01-07T03:30:00Z,27.2970,-97.4049,0.0,32.4,1111122 
TCOON,ioos:station:TCOON:170:1,2017-01-07T04:30:00Z,27.2970,-97.4049,0.0,32.4,1111122 
TCOON,ioos:station:TCOON:170:1,2017-01-07T05:30:00Z,27.2970,-97.4049,0.0,32.3,1111122 
TCOON,ioos:station:TCOON:170:1,2017-01-07T06:30:00Z,27.2970,-97.4049,0.0,32.2,1111122 
TCOON,ioos:station:TCOON:170:1,2017-01-07T07:30:00Z,27.2970,-97.4049,0.0,32.2,1111122 
TCOON,ioos:station:TCOON:170:1,2017-01-07T08:30:00Z,27.2970,-97.4049,0.0,32.0,1111122 
TCOON,ioos:station:TCOON:170:1,2017-01-07T09:30:00Z,27.2970,-97.4049,0.0,32.0,1111122 
TCOON,ioos:station:TCOON:170:1,2017-01-07T10:30:00Z,27.2970,-97.4049,0.0,31.7,1111122 
TCOON,ioos:station:TCOON:170:1,2017-01-07T11:30:00Z,27.2970,-97.4049,0.0,31.7,1111122 
TCOON,ioos:station:TCOON:170:1,2017-01-07T12:30:00Z,27.2970,-97.4049,0.0,31.7,1111122 
TCOON,ioos:station:TCOON:170:1,2017-01-07T13:30:00Z,27.2970,-97.4049,0.0,31.5,1111122 
TCOON,ioos:station:TCOON:170:1,2017-01-07T14:30:00Z,27.2970,-97.4049,0.0,31.3,1111122 
TCOON,ioos:station:TCOON:170:1,2017-01-07T16:30:00Z,27.2970,-97.4049,0.0,31.2,1111122 
TCOON,ioos:station:TCOON:170:1,2017-01-07T17:30:00Z,27.2970,-97.4049,0.0,31.2,1111122 
TCOON,ioos:station:TCOON:170:1,2017-01-07T18:30:00Z,27.2970,-97.4049,0.0,31.2,1111122 
TCOON,ioos:station:TCOON:170:1,2017-01-07T19:30:00Z,27.2970,-97.4049,0.0,31.2,1111122 
TCOON,ioos:station:TCOON:170:1,2017-01-07T20:30:00Z,27.2970,-97.4049,0.0,31.1,1111122 
TCOON,ioos:station:TCOON:170:1,2017-01-07T21:30:00Z,27.2970,-97.4049,0.0,31.1,1111122 
TCOON,ioos:station:TCOON:170:1,2017-01-07T22:30:00Z,27.2970,-97.4049,0.0,31.0,1111122 
TCOON,ioos:station:TCOON:170:1,2017-01-08T14:00:00Z,27.2970,-97.4049,0.0,31.2,1111122 
TCOON,ioos:station:TCOON:170:1,2017-01-08T14:30:00Z,27.2970,-97.4049,0.0,31.2,1111122 
TCOON,ioos:station:TCOON:170:1,2017-01-08T15:30:00Z,27.2970,-97.4049,0.0,31.4,1111122 
TCOON,ioos:station:TCOON:170:1,2017-01-08T16:30:00Z,27.2970,-97.4049,0.0,32.0,1111122 
TCOON,ioos:station:TCOON:170:1,2017-01-08T17:30:00Z,27.2970,-97.4049,0.0,32.6,1111122 
TCOON,ioos:station:TCOON:170:1,2017-01-08T19:30:00Z,27.2970,-97.4049,0.0,32.5,1111122 
TCOON,ioos:station:TCOON:170:1,2017-01-08T20:30:00Z,27.2970,-97.4049,0.0,32.2,1111122 
TCOON,ioos:station:TCOON:170:1,2017-01-08T21:30:00Z,27.2970,-97.4049,0.0,32.4,1111122 
TCOON,ioos:station:TCOON:170:1,2017-01-08T22:30:00Z,27.2970,-97.4049,0.0,32.4,1111122 
TCOON,ioos:station:TCOON:170:1,2017-01-08T23:30:00Z,27.2970,-97.4049,0.0,32.4,1111122 
TCOON,ioos:station:TCOON:170:1,2017-01-09T01:30:00Z,27.2970,-97.4049,0.0,32.7,1111122 
TCOON,ioos:station:TCOON:170:1,2017-01-09T02:30:00Z,27.2970,-97.4049,0.0,32.8,1111122 
TCOON,ioos:station:TCOON:170:1,2017-01-09T03:30:00Z,27.2970,-97.4049,0.0,34.2,1111122 
TCOON,ioos:station:TCOON:170:1,2017-01-09T04:30:00Z,27.2970,-97.4049,0.0,34.8,1111122 
TCOON,ioos:station:TCOON:170:1,2017-01-09T05:30:00Z,27.2970,-97.4049,0.0,35.2,1111122 
TCOON,ioos:station:TCOON:170:1,2017-01-09T06:30:00Z,27.2970,-97.4049,0.0,35.2,1111122 
TCOON,ioos:station:TCOON:170:1,2017-01-09T07:30:00Z,27.2970,-97.4049,0.0,35.4,1111122 
TCOON,ioos:station:TCOON:170:1,2017-01-09T08:30:00Z,27.2970,-97.4049,0.0,35.8,1111122 
TCOON,ioos:station:TCOON:170:1,2017-01-09T10:30:00Z,27.2970,-97.4049,0.0,35.8,1111122 
TCOON,ioos:station:TCOON:170:1,2017-01-09T13:30:00Z,27.2970,-97.4049,0.0,35.8,1111122 
TCOON,ioos:station:TCOON:170:1,2017-01-09T16:30:00Z,27.2970,-97.4049,0.0,36.0,1111122 
TCOON,ioos:station:TCOON:170:1,2017-01-09T17:30:00Z,27.2970,-97.4049,0.0,36.2,1111122 
TCOON,ioos:station:TCOON:170:1,2017-01-09T18:30:00Z,27.2970,-97.4049,0.0,35.9,1111122 
TCOON,ioos:station:TCOON:170:1,2017-01-09T19:30:00Z,27.2970,-97.4049,0.0,36.0,1111122 
TCOON,ioos:station:TCOON:170:1,2017-01-09T20:30:00Z,27.2970,-97.4049,0.0,36.1,1111122 
TCOON,ioos:station:TCOON:170:1,2017-01-09T21:30:00Z,27.2970,-97.4049,0.0,37.0,1111122 
TCOON,ioos:station:TCOON:170:1,2017-01-09T22:30:00Z,27.2970,-97.4049,0.0,36.4,1111122 
TCOON,ioos:station:TCOON:170:1,2017-01-09T23:30:00Z,27.2970,-97.4049,0.0,36.4,1111122 
TCOON,ioos:station:TCOON:170:1,2017-01-10T01:30:00Z,27.2970,-97.4049,0.0,36.6,1111122 
TCOON,ioos:station:TCOON:170:1,2017-01-10T06:30:00Z,27.2970,-97.4049,0.0,37.4,1111122 
TCOON,ioos:station:TCOON:170:1,2017-01-10T07:30:00Z,27.2970,-97.4049,0.0,37.6,1111122 
TCOON,ioos:station:TCOON:170:1,2017-01-10T08:30:00Z,27.2970,-97.4049,0.0,37.7,1111122 
TCOON,ioos:station:TCOON:170:1,2017-01-10T10:30:00Z,27.2970,-97.4049,0.0,37.8,1111122 
TCOON,ioos:station:TCOON:170:1,2017-01-10T14:30:00Z,27.2970,-97.4049,0.0,38.0,1111122 
TCOON,ioos:station:TCOON:170:1,2017-01-10T15:30:00Z,27.2970,-97.4049,0.0,38.1,1111122 
TCOON,ioos:station:TCOON:170:1,2017-01-10T16:30:00Z,27.2970,-97.4049,0.0,38.0,1111122 
TCOON,ioos:station:TCOON:170:1,2017-01-10T17:30:00Z,27.2970,-97.4049,0.0,37.7,1111122 
TCOON,ioos:station:TCOON:170:1,2017-01-10T18:30:00Z,27.2970,-97.4049,0.0,37.6,1111122 
TCOON,ioos:station:TCOON:170:1,2017-01-10T19:30:00Z,27.2970,-97.4049,0.0,37.6,1111122 
TCOON,ioos:station:TCOON:170:1,2017-01-10T20:30:00Z,27.2970,-97.4049,0.0,37.3,1111122 
TCOON,ioos:station:TCOON:170:1,2017-01-10T21:30:00Z,27.2970,-97.4049,0.0,37.2,1111122 
TCOON,ioos:station:TCOON:170:1,2017-01-10T22:30:00Z,27.2970,-97.4049,0.0,37.4,1111122 
TCOON,ioos:station:TCOON:170:1,2017-01-10T23:30:00Z,27.2970,-97.4049,0.0,37.7,1111122 
TCOON,ioos:station:TCOON:170:1,2017-01-11T00:30:00Z,27.2970,-97.4049,0.0,37.9,1111122 
TCOON,ioos:station:TCOON:170:1,2017-01-11T01:30:00Z,27.2970,-97.4049,0.0,38.0,1111122 
TCOON,ioos:station:TCOON:170:1,2017-01-11T02:30:00Z,27.2970,-97.4049,0.0,38.2,1111122 
TCOON,ioos:station:TCOON:170:1,2017-01-11T03:30:00Z,27.2970,-97.4049,0.0,38.2,1111122 
TCOON,ioos:station:TCOON:170:1,2017-01-11T04:30:00Z,27.2970,-97.4049,0.0,38.3,1111122 
TCOON,ioos:station:TCOON:170:1,2017-01-11T05:30:00Z,27.2970,-97.4049,0.0,38.4,1111122 
TCOON,ioos:station:TCOON:170:1,2017-01-11T06:30:00Z,27.2970,-97.4049,0.0,38.4,1111122 
TCOON,ioos:station:TCOON:170:1,2017-01-11T07:30:00Z,27.2970,-97.4049,0.0,38.8,1111122 
TCOON,ioos:station:TCOON:170:1,2017-01-11T08:30:00Z,27.2970,-97.4049,0.0,38.4,1111122 
TCOON,ioos:station:TCOON:170:1,2017-01-11T09:30:00Z,27.2970,-97.4049,0.0,38.1,1111122 
TCOON,ioos:station:TCOON:170:1,2017-01-11T10:30:00Z,27.2970,-97.4049,0.0,38.0,1111122 
TCOON,ioos:station:TCOON:170:1,2017-01-11T11:30:00Z,27.2970,-97.4049,0.0,38.0,1111122 
TCOON,ioos:station:TCOON:170:1,2017-01-11T12:30:00Z,27.2970,-97.4049,0.0,38.0,1111122 
TCOON,ioos:station:TCOON:170:1,2017-01-11T13:30:00Z,27.2970,-97.4049,0.0,38.0,1111122 
TCOON,ioos:station:TCOON:170:1,2017-01-11T15:30:00Z,27.2970,-97.4049,0.0,38.1,1111122 
TCOON,ioos:station:TCOON:170:1,2017-01-11T16:30:00Z,27.2970,-97.4049,0.0,38.1,1111122 
TCOON,ioos:station:TCOON:170:1,2017-01-11T17:30:00Z,27.2970,-97.4049,0.0,38.3,1111122 
TCOON,ioos:station:TCOON:170:1,2017-01-11T18:30:00Z,27.2970,-97.4049,0.0,38.0,1111122 
TCOON,ioos:station:TCOON:170:1,2017-01-11T19:30:00Z,27.2970,-97.4049,0.0,37.7,1111122 
TCOON,ioos:station:TCOON:170:1,2017-01-11T20:30:00Z,27.2970,-97.4049,0.0,37.6,1111122 
TCOON,ioos:station:TCOON:170:1,2017-01-11T21:30:00Z,27.2970,-97.4049,0.0,37.5,1111122 
TCOON,ioos:station:TCOON:170:1,2017-01-11T22:30:00Z,27.2970,-97.4049,0.0,37.3,1111122 
TCOON,ioos:station:TCOON:170:1,2017-01-11T23:30:00Z,27.2970,-97.4049,0.0,37.6,1111122 
TCOON,ioos:station:TCOON:170:1,2017-01-12T00:30:00Z,27.2970,-97.4049,0.0,38.0,1111122 
TCOON,ioos:station:TCOON:170:1,2017-01-12T01:30:00Z,27.2970,-97.4049,0.0,38.2,1111122 
TCOON,ioos:station:TCOON:170:1,2017-01-12T02:30:00Z,27.2970,-97.4049,0.0,38.3,1111122 
TCOON,ioos:station:TCOON:170:1,2017-01-12T03:30:00Z,27.2970,-97.4049,0.0,38.3,1111122 
TCOON,ioos:station:TCOON:170:1,2017-01-12T06:30:00Z,27.2970,-97.4049,0.0,37.9,1111122 
TCOON,ioos:station:TCOON:170:1,2017-01-12T07:30:00Z,27.2970,-97.4049,0.0,37.6,1111122 
TCOON,ioos:station:TCOON:170:1,2017-01-12T10:30:00Z,27.2970,-97.4049,0.0,37.7,1111122 
TCOON,ioos:station:TCOON:170:1,2017-01-12T12:30:00Z,27.2970,-97.4049,0.0,38.0,1111122 
TCOON,ioos:station:TCOON:170:1,2017-01-12T15:30:00Z,27.2970,-97.4049,0.0,38.5,1111122 
TCOON,ioos:station:TCOON:170:1,2017-01-12T16:30:00Z,27.2970,-97.4049,0.0,38.6,1111122 
TCOON,ioos:station:TCOON:170:1,2017-01-12T17:30:00Z,27.2970,-97.4049,0.0,38.8,1111122 
TCOON,ioos:station:TCOON:170:1,2017-01-12T18:30:00Z,27.2970,-97.4049,0.0,38.5,1111122 
TCOON,ioos:station:TCOON:170:1,2017-01-12T19:30:00Z,27.2970,-97.4049,0.0,38.5,1111122 
TCOON,ioos:station:TCOON:170:1,2017-01-12T20:30:00Z,27.2970,-97.4049,0.0,38.1,1111122 
TCOON,ioos:station:TCOON:170:1,2017-01-12T21:30:00Z,27.2970,-97.4049,0.0,38.2,1111122 
TCOON,ioos:station:TCOON:170:1,2017-01-12T22:30:00Z,27.2970,-97.4049,0.0,37.8,1111122 
TCOON,ioos:station:TCOON:170:1,2017-01-12T23:30:00Z,27.2970,-97.4049,0.0,37.7,1111122 
TCOON,ioos:station:TCOON:170:1,2017-01-20T21:30:00Z,27.2970,-97.4049,0.0,40.9,1111122 
TCOON,ioos:station:TCOON:170:1,2017-01-20T23:30:00Z,27.2970,-97.4049,0.0,40.8,1111122 
TCOON,ioos:station:TCOON:170:1,2017-01-21T00:30:00Z,27.2970,-97.4049,0.0,40.7,1111122 
TCOON,ioos:station:TCOON:170:1,2017-01-21T01:30:00Z,27.2970,-97.4049,0.0,40.7,1111122 
TCOON,ioos:station:TCOON:170:1,2017-01-21T02:30:00Z,27.2970,-97.4049,0.0,40.7,1111122 
TCOON,ioos:station:TCOON:170:1,2017-01-21T19:30:00Z,27.2970,-97.4049,0.0,41.3,1111122 
TCOON,ioos:station:TCOON:170:1,2017-01-22T03:30:00Z,27.2970,-97.4049,0.0,41.8,1111122 
TCOON,ioos:station:TCOON:170:1,2017-01-22T04:30:00Z,27.2970,-97.4049,0.0,41.8,1111122 
TCOON,ioos:station:TCOON:170:1,2017-01-22T05:30:00Z,27.2970,-97.4049,0.0,41.8,1111122 
TCOON,ioos:station:TCOON:170:1,2017-01-22T06:30:00Z,27.2970,-97.4049,0.0,41.7,1111122 
TCOON,ioos:station:TCOON:170:1,2017-01-22T07:30:00Z,27.2970,-97.4049,0.0,41.7,1111122 
TCOON,ioos:station:TCOON:170:1,2017-01-22T08:30:00Z,27.2970,-97.4049,0.0,41.6,1111122 
TCOON,ioos:station:TCOON:170:1,2017-01-22T09:30:00Z,27.2970,-97.4049,0.0,41.6,1111122 
TCOON,ioos:station:TCOON:170:1,2017-01-22T10:30:00Z,27.2970,-97.4049,0.0,41.4,1111122 
TCOON,ioos:station:TCOON:170:1,2017-01-22T11:30:00Z,27.2970,-97.4049,0.0,41.4,1111122 
TCOON,ioos:station:TCOON:170:1,2017-01-22T12:30:00Z,27.2970,-97.4049,0.0,41.3,1111122 
TCOON,ioos:station:TCOON:170:1,2017-01-22T13:30:00Z,27.2970,-97.4049,0.0,41.1,1111122 
TCOON,ioos:station:TCOON:170:1,2017-01-22T14:30:00Z,27.2970,-97.4049,0.0,41.0,1111122 
TCOON,ioos:station:TCOON:170:1,2017-01-22T22:30:00Z,27.2970,-97.4049,0.0,41.1,1111122 
TCOON,ioos:station:TCOON:170:1,2017-01-22T23:30:00Z,27.2970,-97.4049,0.0,41.3,1111122 
TCOON,ioos:station:TCOON:170:1,2017-01-23T23:30:00Z,27.2970,-97.4049,0.0,41.6,1111122 
TCOON,ioos:station:TCOON:170:1,2017-01-24T09:30:00Z,27.2970,-97.4049,0.0,42.4,1111122 
TCOON,ioos:station:TCOON:170:1,2017-01-24T10:30:00Z,27.2970,-97.4049,0.0,42.5,1111122 
TCOON,ioos:station:TCOON:170:1,2017-01-24T11:30:00Z,27.2970,-97.4049,0.0,42.5,1111122 
TCOON,ioos:station:TCOON:170:1,2017-01-24T12:30:00Z,27.2970,-97.4049,0.0,42.5,1111122 
TCOON,ioos:station:TCOON:170:1,2017-01-24T13:30:00Z,27.2970,-97.4049,0.0,42.4,1111122 
TCOON,ioos:station:TCOON:170:1,2017-01-24T14:30:00Z,27.2970,-97.4049,0.0,42.4,1111122 
TCOON,ioos:station:TCOON:170:1,2017-01-24T15:30:00Z,27.2970,-97.4049,0.0,42.5,1111122 
TCOON,ioos:station:TCOON:170:1,2017-01-24T16:30:00Z,27.2970,-97.4049,0.0,42.5,1111122 
TCOON,ioos:station:TCOON:170:1,2017-01-24T17:30:00Z,27.2970,-97.4049,0.0,42.5,1111122 
TCOON,ioos:station:TCOON:170:1,2017-01-24T18:30:00Z,27.2970,-97.4049,0.0,42.5,1111122 
TCOON,ioos:station:TCOON:170:1,2017-01-24T19:30:00Z,27.2970,-97.4049,0.0,42.5,1111122 
TCOON,ioos:station:TCOON:170:1,2017-01-24T20:30:00Z,27.2970,-97.4049,0.0,42.5,1111122 
TCOON,ioos:station:TCOON:170:1,2017-01-24T21:30:00Z,27.2970,-97.4049,0.0,42.6,1111122 
TCOON,ioos:station:TCOON:170:1,2017-01-24T22:30:00Z,27.2970,-97.4049,0.0,42.7,1111122 
TCOON,ioos:station:TCOON:170:1,2017-01-24T23:30:00Z,27.2970,-97.4049,0.0,42.8,1111122 
TCOON,ioos:station:TCOON:170:1,2017-01-25T00:30:00Z,27.2970,-97.4049,0.0,43.0,1111122 
TCOON,ioos:station:TCOON:170:1,2017-01-25T01:30:00Z,27.2970,-97.4049,0.0,43.0,1111122 
TCOON,ioos:station:TCOON:170:1,2017-01-25T02:30:00Z,27.2970,-97.4049,0.0,43.1,1111122 
TCOON,ioos:station:TCOON:170:1,2017-01-25T03:30:00Z,27.2970,-97.4049,0.0,43.0,1111122 
TCOON,ioos:station:TCOON:170:1,2017-01-25T04:30:00Z,27.2970,-97.4049,0.0,43.1,1111122 
TCOON,ioos:station:TCOON:170:1,2017-01-25T05:30:00Z,27.2970,-97.4049,0.0,43.2,1111122 
TCOON,ioos:station:TCOON:170:1,2017-01-25T06:30:00Z,27.2970,-97.4049,0.0,43.2,1111122 
TCOON,ioos:station:TCOON:170:1,2017-01-25T07:30:00Z,27.2970,-97.4049,0.0,43.2,1111122 
TCOON,ioos:station:TCOON:170:1,2017-01-25T08:30:00Z,27.2970,-97.4049,0.0,43.2,1111122 
TCOON,ioos:station:TCOON:170:1,2017-01-25T09:30:00Z,27.2970,-97.4049,0.0,43.1,1111122 
TCOON,ioos:station:TCOON:170:1,2017-01-25T10:30:00Z,27.2970,-97.4049,0.0,43.1,1111122 
TCOON,ioos:station:TCOON:170:1,2017-01-25T21:30:00Z,27.2970,-97.4049,0.0,42.7,1111122 
TCOON,ioos:station:TCOON:170:1,2017-01-25T22:30:00Z,27.2970,-97.4049,0.0,42.8,1111122 
TCOON,ioos:station:TCOON:170:1,2017-01-26T13:30:00Z,27.2970,-97.4049,0.0,42.9,1111122 
TCOON,ioos:station:TCOON:170:1,2017-01-26T14:30:00Z,27.2970,-97.4049,0.0,42.8,1111122 
TCOON,ioos:station:TCOON:170:1,2017-01-26T16:30:00Z,27.2970,-97.4049,0.0,42.9,1111122 
TCOON,ioos:station:TCOON:170:1,2017-01-26T22:30:00Z,27.2970,-97.4049,0.0,42.8,1111122 
TCOON,ioos:station:TCOON:170:1,2017-01-27T07:30:00Z,27.2970,-97.4049,0.0,42.8,1111122 
TCOON,ioos:station:TCOON:170:1,2017-01-27T08:30:00Z,27.2970,-97.4049,0.0,42.8,1111122 
TCOON,ioos:station:TCOON:170:1,2017-01-28T11:30:00Z,27.2970,-97.4049,0.0,41.3,1111122 
TCOON,ioos:station:TCOON:170:1,2017-01-29T15:30:00Z,27.2970,-97.4049,0.0,41.4,1111122 
TCOON,ioos:station:TCOON:170:1,2017-01-29T16:30:00Z,27.2970,-97.4049,0.0,41.4,1111122 
TCOON,ioos:station:TCOON:170:1,2017-01-29T22:30:00Z,27.2970,-97.4049,0.0,41.6,1111122 
TCOON,ioos:station:TCOON:170:1,2017-01-30T00:30:00Z,27.2970,-97.4049,0.0,42.0,1111122 
TCOON,ioos:station:TCOON:170:1,2017-01-30T06:30:00Z,27.2970,-97.4049,0.0,42.7,1111122 
TCOON,ioos:station:TCOON:170:1,2017-01-30T09:30:00Z,27.2970,-97.4049,0.0,42.5,1111122 
TCOON,ioos:station:TCOON:170:1,2017-01-30T20:30:00Z,27.2970,-97.4049,0.0,42.1,1111122 
TCOON,ioos:station:TCOON:170:1,2017-01-30T21:30:00Z,27.2970,-97.4049,0.0,42.2,1111122 
TCOON,ioos:station:TCOON:170:1,2017-01-30T22:30:00Z,27.2970,-97.4049,0.0,42.2,1111122 
TCOON,ioos:station:TCOON:170:1,2017-01-31T15:30:00Z,27.2970,-97.4049,0.0,42.6,1111122 
TCOON,ioos:station:TCOON:170:1,2017-01-31T16:30:00Z,27.2970,-97.4049,0.0,42.6,1111122 
TCOON,ioos:station:TCOON:170:1,2017-01-31T18:30:00Z,27.2970,-97.4049,0.0,42.6,1111122 
TCOON,ioos:station:TCOON:170:1,2017-01-31T19:30:00Z,27.2970,-97.4049,0.0,42.6,1111122 
TCOON,ioos:station:TCOON:170:1,2017-01-31T21:30:00Z,27.2970,-97.4049,0.0,42.6,1111122 
 